Location: Killam
(52.7910°N, 111.8608°W)
Time: 16:48:55
(UTC+00:00)

Vanguard 2 Rocket - Pass Details

Date: 17 February 2026
Orbit: 553 x 3286 km, 32.9° (Epoch: 11 March)

Event Time Altitude Azimuth Distance (km) Brightness Sun altitude
Rises 18:37:35 0° 206° (SSW) 7,252 12.2 24.0°
Reaches altitude 10° 18:44:30 10° 193° (SSW) 6,153 12.3 24.3°
Maximum altitude 18:56:24 21° 154° (SSE) 4,789 12.7 24.7°
Drops below altitude 10° 19:06:06 10° 113° (ESE) 4,935 11.2 25.0°
Sets 19:10:41 0° 98° (E) 5,502 11.1 25.1°
